Location: Charleville
(26.4021°S, 146.2454°E)
Time: 04:15:13
(UTC+10:00)

Envisat - Pass Details

Date: 11 November 2025
Orbit: 761 x 762 km, 98.4° (Epoch: 05 December)

Event Time Altitude Azimuth Distance (km) Brightness Sun altitude
Exits shadow 02:07:57 25° 174° (S) 1,518 4.9 -36.2°
Drops below altitude 10° 02:10:06 10° 182° (S) 2,317 6.0 -35.9°
Sets 02:12:27 0° 186° (S) 3,250 6.8 -35.6°
